When you browse on this site, cookies collect data to enhance your experience and personalize the content and advertising you see.
Visit our Privacy Policy to learn more. By continuing to use the site, you agree to this use of cookies and data.
  • In United Kingdom
  • List of Countries
  • For 7 days
  • Water Temperature
  • Satellite Maps
  • Weather Map
  • Weather Widgets
  • user-avatar
    Login

    Hourly Weather Hawalii

    Today, 24 July, Wednesday

    Time Temperature Precipitation Wind Pressure Humidity
    00:00 +43°C° 0 mm 7 mps 746 mmHg 12%
    01:00 +43°C° 0 mm 7 mps 746 mmHg 13%
    02:00 +41°C° 0 mm 6 mps 746 mmHg 14%
    03:00 +40°C° 0 mm 6 mps 745 mmHg 15%
    04:00 +40°C° 0 mm 6 mps 746 mmHg 15%
    05:00 +40°C° 0 mm 5 mps 746 mmHg 15%
    06:00 +40°C° 0 mm 5 mps 747 mmHg 15%
    07:00 +42°C° 0 mm 5 mps 747 mmHg 14%
    08:00 +45°C° 0 mm 5 mps 747 mmHg 12%
    09:00 +47°C° 0 mm 5 mps 747 mmHg 11%
    10:00 +48°C° 0 mm 5 mps 747 mmHg 10%
    11:00 +50°C° 0 mm 5 mps 747 mmHg 9%
    12:00 +53°C° 0 mm 5 mps 747 mmHg 8%
    13:00 +53°C° 0 mm 5 mps 746 mmHg 8%
    14:00 +54°C° 0 mm 5 mps 745 mmHg 7%
    15:00 +54°C° 0 mm 5 mps 745 mmHg 7%
    16:00 +53°C° 0 mm 5 mps 745 mmHg 7%
    17:00 +52°C° 0 mm 4 mps 745 mmHg 8%
    18:00 +51°C° 0 mm 4 mps 745 mmHg 9%
    19:00 +50°C° 0 mm 5 mps 746 mmHg 9%
    20:00 +49°C° 0 mm 5 mps 746 mmHg 9%
    21:00 +48°C° 0 mm 6 mps 746 mmHg 9%
    22:00 +47°C° 0 mm 6 mps 746 mmHg 10%
    23:00 +46°C° 0 mm 6 mps 746 mmHg 11%

    Tomorrow, 25 July, Thursday

    Time Temperature Precipitation Wind Pressure Humidity
    00:00 +45°C° 0 mm 5 mps 746 mmHg 12%
    01:00 +43°C° 0 mm 5 mps 746 mmHg 13%
    02:00 +42°C° 0 mm 4 mps 746 mmHg 15%
    03:00 +40°C° 0 mm 3 mps 746 mmHg 16%
    04:00 +39°C° 0 mm 2 mps 746 mmHg 17%
    05:00 +39°C° 0 mm 2 mps 747 mmHg 17%
    06:00 +39°C° 0 mm 1 mps 747 mmHg 18%
    07:00 +41°C° 0 mm 1 mps 747 mmHg 16%
    08:00 +42°C° 0 mm 2 mps 747 mmHg 14%
    09:00 +45°C° 0 mm 2 mps 748 mmHg 11%
    10:00 +47°C° 0 mm 3 mps 747 mmHg 10%
    11:00 +50°C° 0 mm 3 mps 747 mmHg 9%
    12:00 +52°C° 0 mm 3 mps 747 mmHg 8%
    13:00 +52°C° 0 mm 4 mps 747 mmHg 8%
    14:00 +53°C° 0 mm 4 mps 746 mmHg 7%
    15:00 +55°C° 0 mm 5 mps 745 mmHg 7%
    16:00 +54°C° 0 mm 5 mps 745 mmHg 7%
    17:00 +53°C° 0 mm 6 mps 745 mmHg 7%
    18:00 +53°C° 0 mm 7 mps 745 mmHg 7%
    19:00 +52°C° 0 mm 7 mps 745 mmHg 8%
    20:00 +51°C° 0 mm 7 mps 745 mmHg 8%
    21:00 +49°C° 0 mm 7 mps 745 mmHg 9%
    22:00 +47°C° 0 mm 7 mps 745 mmHg 9%
    23:00 +46°C° 0 mm 7 mps 745 mmHg 10%

    Day after tomorrow, 26 July, Friday

    Time Temperature Precipitation Wind Pressure Humidity
    00:00 +45°C° 0 mm 7 mps 745 mmHg 11%
    01:00 +44°C° 0 mm 7 mps 745 mmHg 12%
    02:00 +43°C° 0 mm 7 mps 745 mmHg 12%
    03:00 +41°C° 0 mm 7 mps 745 mmHg 13%
    04:00 +41°C° 0 mm 7 mps 745 mmHg 14%
    05:00 +41°C° 0 mm 6 mps 746 mmHg 14%
    06:00 +40°C° 0 mm 6 mps 746 mmHg 15%
    07:00 +42°C° 0 mm 6 mps 746 mmHg 13%
    08:00 +45°C° 0 mm 7 mps 746 mmHg 12%
    09:00 +47°C° 0 mm 7 mps 747 mmHg 10%
    10:00 +50°C° 0 mm 8 mps 746 mmHg 9%
    11:00 +51°C° 0 mm 8 mps 746 mmHg 8%
    12:00 +53°C° 0 mm 9 mps 746 mmHg 7%
    13:00 +53°C° 0 mm 9 mps 745 mmHg 7%
    14:00 +53°C° 0 mm 9 mps 744 mmHg 7%
    15:00 +54°C° 0 mm 9 mps 744 mmHg 6%
    16:00 +53°C° 0 mm 9 mps 744 mmHg 6%
    17:00 +51°C° 0 mm 9 mps 743 mmHg 7%
    18:00 +51°C° 0 mm 9 mps 743 mmHg 7%
    19:00 +49°C° 0 mm 9 mps 743 mmHg 7%
    20:00 +48°C° 0 mm 9 mps 744 mmHg 8%
    21:00 +47°C° 0 mm 9 mps 744 mmHg 9%
    22:00 +45°C° 0 mm 8 mps 744 mmHg 10%
    23:00 +44°C° 0 mm 8 mps 744 mmHg 10%

    27 July, Saturday

    Time Temperature Precipitation Wind Pressure Humidity
    00:00 +43°C° 0 mm 8 mps 744 mmHg 11%
    01:00 +43°C° 0 mm 8 mps 744 mmHg 12%
    02:00 +43°C° 0 mm 7 mps 744 mmHg 12%
    03:00 +41°C° 0 mm 7 mps 743 mmHg 13%
    04:00 +41°C° 0 mm 7 mps 744 mmHg 13%
    05:00 +40°C° 0 mm 7 mps 744 mmHg 14%
    06:00 +40°C° 0 mm 7 mps 744 mmHg 14%
    07:00 +43°C° 0 mm 7 mps 744 mmHg 12%
    08:00 +45°C° 0 mm 8 mps 745 mmHg 11%
    09:00 +48°C° 0 mm 8 mps 745 mmHg 9%
    10:00 +49°C° 0 mm 9 mps 745 mmHg 9%
    11:00 +50°C° 0 mm 9 mps 744 mmHg 8%
    12:00 +51°C° 0 mm 9 mps 744 mmHg 8%
    13:00 +53°C° 0 mm 9 mps 744 mmHg 7%
    14:00 +53°C° 0 mm 9 mps 743 mmHg 7%
    15:00 +52°C° 0 mm 8 mps 743 mmHg 7%
    16:00 +52°C° 0 mm 8 mps 743 mmHg 7%
    17:00 +51°C° 0 mm 8 mps 742 mmHg 7%
    18:00 +51°C° 0 mm 8 mps 742 mmHg 7%
    19:00 +50°C° 0 mm 7 mps 743 mmHg 8%
    20:00 +47°C° 0 mm 7 mps 743 mmHg 8%
    21:00 +46°C° 0 mm 6 mps 744 mmHg 9%
    22:00 +45°C° 0 mm 7 mps 743 mmHg 10%
    23:00 +44°C° 0 mm 7 mps 743 mmHg 12%

    28 July, Sunday

    Time Temperature Precipitation Wind Pressure Humidity
    00:00 +44°C° 0 mm 8 mps 743 mmHg 13%
    01:00 +43°C° 0 mm 7 mps 743 mmHg 13%
    02:00 +41°C° 0 mm 6 mps 743 mmHg 14%
    03:00 +41°C° 0 mm 4 mps 743 mmHg 15%
    04:00 +40°C° 0 mm 4 mps 744 mmHg 15%
    05:00 +40°C° 0 mm 4 mps 744 mmHg 15%
    06:00 +39°C° 0 mm 3 mps 744 mmHg 15%
    07:00 +40°C° 0 mm 3 mps 744 mmHg 14%
    08:00 +43°C° 0 mm 3 mps 745 mmHg 13%
    09:00 +45°C° 0 mm 3 mps 745 mmHg 12%
    10:00 +46°C° 0 mm 3 mps 745 mmHg 11%
    11:00 +47°C° 0 mm 3 mps 745 mmHg 10%
    12:00 +50°C° 0 mm 3 mps 745 mmHg 9%
    13:00 +50°C° 0 mm 4 mps 744 mmHg 9%
    14:00 +50°C° 0 mm 4 mps 744 mmHg 9%
    15:00 +50°C° 0 mm 4 mps 743 mmHg 9%
    16:00 +50°C° 0 mm 3 mps 743 mmHg 10%
    17:00 +48°C° 0 mm 3 mps 743 mmHg 11%
    18:00 +47°C° 0 mm 2 mps 743 mmHg 11%
    19:00 +47°C° 0 mm 2 mps 743 mmHg 11%
    20:00 +46°C° 0 mm 3 mps 744 mmHg 11%
    21:00 +45°C° 0 mm 3 mps 744 mmHg 11%
    22:00 +45°C° 0 mm 3 mps 744 mmHg 12%
    23:00 +44°C° 0 mm 4 mps 744 mmHg 13%

    29 July, Monday

    Time Temperature Precipitation Wind Pressure Humidity
    00:00 +43°C° 0 mm 4 mps 744 mmHg 13%
    01:00 +42°C° 0 mm 3 mps 744 mmHg 15%
    02:00 +40°C° 0 mm 2 mps 744 mmHg 17%
    03:00 +39°C° 0 mm 1 mps 744 mmHg 19%
    04:00 +39°C° 0 mm 2 mps 744 mmHg 18%
    05:00 +39°C° 0 mm 2 mps 745 mmHg 18%
    06:00 +39°C° 0 mm 2 mps 745 mmHg 18%
    07:00 +40°C° 0 mm 2 mps 745 mmHg 16%
    08:00 +42°C° 0 mm 2 mps 746 mmHg 15%
    09:00 +45°C° 0 mm 2 mps 746 mmHg 14%
    10:00 +46°C° 0 mm 2 mps 746 mmHg 13%
    11:00 +47°C° 0 mm 2 mps 746 mmHg 12%
    12:00 +48°C° 0 mm 2 mps 745 mmHg 11%
    13:00 +49°C° 0 mm 2 mps 745 mmHg 11%
    14:00 +50°C° 0 mm 2 mps 744 mmHg 10%
    15:00 +51°C° 0 mm 2 mps 744 mmHg 10%
    16:00 +50°C° 0 mm 2 mps 744 mmHg 10%
    17:00 +50°C° 0 mm 2 mps 743 mmHg 10%
    18:00 +49°C° 0 mm 2 mps 743 mmHg 10%
    19:00 +48°C° 0 mm 2 mps 744 mmHg 11%
    20:00 +47°C° 0 mm 2 mps 744 mmHg 11%
    21:00 +46°C° 0 mm 2 mps 744 mmHg 12%
    22:00 +45°C° 0 mm 2 mps 744 mmHg 12%
    23:00 +45°C° 0 mm 3 mps 744 mmHg 13%
    Show more